Location: Wiesbaden
(50.0830°N, 8.2500°E)
Time: 19:44:40
(UTC+02:00)

ISS - Pass Details

Date: 19 July 2019
Orbit: 409 x 418 km, 51.6° (Epoch: 20 July)

Event Time Altitude Azimuth Distance (km) Brightness Sun altitude
Rises 00:38:30 0° 266° (W) 2,350 0.2 -17.9°
Reaches altitude 10° 00:40:36 10° 269° (W) 1,487 -0.8 -18.0°
Maximum altitude 00:43:55 68° 354° (N) 449 -3.5 -18.1°
Drops below altitude 10° 00:47:14 10° 78° (ENE) 1,483 -1.0 -18.2°
Sets 00:49:20 0° 81° (E) 2,344 0.0 -18.3°
